Spirit of St Louis, MO

12:13 AM CDT on May 24, 2017 (GMT -0500)
Spirit Of Saint Louis

Weather History for KSUS - October, 2013

Change the Weather History Date:

Sunday, October 13, 2013

  Actual Average Record
Temperature  
Mean Temperature 57 °F -  
Max Temperature 73 °F 67 °F 84 °F (1996)
Min Temperature 41 °F 42 °F 28 °F (2006)
Degree Days  
Heating Degree Days 8    
Growing Degree Days 7 (Base 50)    
Moisture  
Dew Point 40 °F    
Average Humidity 64    
Maximum Humidity 96    
Minimum Humidity 23    
Precipitation  
Precipitation 0.00 in - - ()
Sea Level Pressure  
Sea Level Pressure 30.32 in    
Wind  
Wind Speed 2 mph (North)    
Max Wind Speed 10 mph    
Max Gust Speed -    
Visibility 10 miles    
Events      
Averages and records for this station are not official NWS values.
T = Trace of Precipitation, MM = Missing Value Source: NWS Daily Summary

Daily Weather History Graph

Daily Weather History Graph

Search for Another Location

Airport or City:

Trip Planner

Search our weather history database for the weather conditions in past years. The results will help you decide how hot, cold, wet, or windy it might be!

Date:

Astronomy

Oct. 13, 2013 Rise Set
Actual Time 7:10 AM CDT 6:26 PM CDT
Civil Twilight 6:43 AM CDT 6:53 PM CDT
Nautical Twilight 6:12 AM CDT 7:24 PM CDT
Astronomical Twilight 5:41 AM CDT 7:54 PM CDT
Moon 3:15 PM CDT (10/13) 1:23 AM CDT (10/13)
Length of Visible Light 12h 10m
Length of Day
11h 16m
Waxing Gibbous, 69% of the Moon is Illuminated
Oct 13
Waxing Gibbous
Oct 18
Full
Oct 26
Last Quarter
Nov 3
New
Nov 9
First Quarter

Hourly Weather History & Observations

Time (CDT) Temp. Windchill Dew Point Humidity Pressure Visibility Wind Dir Wind Speed Gust Speed Precip Events Conditions
12:54 AM 46.0 °F - 43.0 °F 89% 30.23 in 10.0 mi Calm Calm - N/A   Clear
1:54 AM 45.0 °F 42.6 °F 43.0 °F 93% 30.25 in 10.0 mi WSW 4.6 mph - N/A   Clear
2:54 AM 44.1 °F - 42.1 °F 93% 30.27 in 10.0 mi Calm Calm - N/A   Clear
3:54 AM 45.0 °F - 42.1 °F 90% 30.28 in 10.0 mi Calm Calm - N/A   Clear
4:54 AM 43.0 °F - 41.0 °F 93% 30.29 in 10.0 mi Calm Calm - N/A   Clear
5:54 AM 41.0 °F - 39.9 °F 96% 30.31 in 10.0 mi Calm Calm - N/A   Clear
6:54 AM 41.0 °F - 39.0 °F 93% 30.34 in 10.0 mi Calm Calm - N/A   Clear
7:54 AM 43.0 °F - 39.9 °F 89% 30.36 in 10.0 mi Calm Calm - N/A   Clear
8:54 AM 53.1 °F - 45.0 °F 74% 30.38 in 10.0 mi Calm Calm - N/A   Clear
9:54 AM 60.1 °F - 45.0 °F 57% 30.38 in 10.0 mi Calm Calm - N/A   Clear
10:54 AM 66.0 °F - 39.9 °F 38% 30.39 in 10.0 mi East 5.8 mph - N/A   Clear
11:54 AM 69.1 °F - 37.0 °F 31% 30.38 in 10.0 mi NE 4.6 mph - N/A   Clear
12:54 PM 71.1 °F - 36.0 °F 28% 30.36 in 10.0 mi Calm Calm - N/A   Clear
1:54 PM 72.0 °F - 33.1 °F 24% 30.33 in 10.0 mi North 10.4 mph - N/A   Clear
2:54 PM 73.0 °F - 33.1 °F 23% 30.32 in 10.0 mi North 6.9 mph - N/A   Clear
3:54 PM 73.0 °F - 34.0 °F 24% 30.30 in 10.0 mi North 8.1 mph - N/A   Clear
4:54 PM 72.0 °F - 33.1 °F 24% 30.29 in 10.0 mi North 8.1 mph - N/A   Clear
5:54 PM 70.0 °F - 34.0 °F 27% 30.30 in 10.0 mi North 3.5 mph - N/A   Clear
6:54 PM 55.0 °F - 43.0 °F 64% 30.31 in 10.0 mi Calm Calm - N/A   Clear
7:54 PM 50.0 °F - 41.0 °F 71% 30.33 in 10.0 mi Calm Calm - N/A   Clear
8:54 PM 50.0 °F - 42.1 °F 74% 30.33 in 10.0 mi Calm Calm - N/A   Clear
9:54 PM 48.9 °F - 43.0 °F 80% 30.34 in 10.0 mi Calm Calm - N/A   Clear
10:54 PM 46.0 °F - 41.0 °F 83% 30.34 in 10.0 mi Calm Calm - N/A   Clear
11:54 PM 45.0 °F - 41.0 °F 86% 30.34 in 10.0 mi Calm Calm - N/A   Clear